This is the latest recevied weather packets stored in our database for station/object N8WEL. If no packets are shown the sender has not sent any weather packets the latest 10 day(s).
| Time | Temp. | Humidity | Pressure | Rain* | Wind** | Luminosity | Snow |
|---|---|---|---|---|---|---|---|
| 1777584173 | 13.89° C | 45% | 1014.1 hPa | 0 mm | - | - | - |
| 1777583789 | 13.33° C | 44% | 1014.2 hPa | 0 mm | - | - | - |
| 1777582958 | 14.44° C | 40% | 1014.2 hPa | 0 mm | - | - | - |
| 1777582353 | 14.44° C | 41% | 1014.3 hPa | 0 mm | - | - | - |
| 1777582053 | 13.89° C | 43% | 1014.2 hPa | 0 mm | - | - | - |
| 1777581753 | 13.89° C | 42% | 1014.3 hPa | 0 mm | - | - | - |
| 1777581453 | 13.33° C | 42% | 1014.2 hPa | 0 mm | - | - | - |
| 1777581153 | 13.33° C | 42% | 1014.3 hPa | 0 mm | - | - | - |
| 1777580853 | 13.89° C | 42% | 1014.1 hPa | 0 mm | - | - | - |
| 1777580553 | 13.89° C | 41% | 1014.2 hPa | 0 mm | - | - | - |
| 1777580268 | 13.33° C | 44% | 1014.2 hPa | 0 mm | - | - | - |
| 1777579953 | 13.89° C | 42% | 1014.3 hPa | 0 mm | - | - | - |
| 1777579653 | 13.89° C | 41% | 1014.3 hPa | 0 mm | - | - | - |
| 1777579359 | 13.89° C | 40% | 1014.4 hPa | 0 mm | - | - | - |
| 1777579076 | 14.44° C | 42% | 1014.3 hPa | 0 mm | - | - | - |
| 1777578690 | 13.89° C | 42% | 1014.5 hPa | 0 mm | - | - | - |
| 1777578333 | 14.44° C | 43% | 1014.5 hPa | 0 mm | - | - | - |
| 1777578031 | 14.44° C | 41% | 1014.5 hPa | 0 mm | - | - | - |
| 1777577743 | 13.89° C | 45% | 1014.4 hPa | 0 mm | - | - | - |
| 1777577417 | 13.89° C | 42% | 1014.6 hPa | 0 mm | - | - | - |
| 1777577135 | 13.89° C | 44% | 1014.5 hPa | 0 mm | - | - | - |
| 1777576817 | 13.33° C | 43% | 1014.4 hPa | 0 mm | - | - | - |
| 1777576517 | 13.89° C | 42% | 1014.5 hPa | 0 mm | - | - | - |
| 1777576269 | 13.89° C | 45% | 1014.5 hPa | 0 mm | - | - | - |
| 1777575917 | 13.33° C | 43% | 1014.6 hPa | 0 mm | - | - | - |
* Rain latest hour (hover to see other rain measurements)
** Current wind speed in m/s (hover to see current wind gust speed)